Regional Weather Roundup
Issued by NWS

Home | Current Version | Previous Version | Graphics & Text | Print | Product List | Glossary On
Versions: 1 2 3 4 5 6 7 8 9 10 11 12 13 14 15 16 17 18 19 20 21 22 23 24 25 26 27 28 29 30 31 32 33 34 35 36 37 38 39 40 41 42 43 44 45 46 47 48 49 50
000
ASUS43 KTOP 310410
RWRKS

STATE WEATHER ROUNDUP
NATIONAL WEATHER SERVICE DODGE CITY KS
 FOR NATIONAL WEATHER SERVICE GOODLAND KS
1100 PM CDT THU JUL 30 2015

NOTE:  "FAIR" INDICATES FEW OR NO CLOUDS BELOW 12,000 FEET WITH NO
SIGNIFICANT WEATHER AND/OR OBSTRUCTIONS TO VISIBILITY.

KSZ001>006-013>018-027>032-041>047-310500-
...NORTHWEST KANSAS...

CITY           SKY/WX    TMP DP  RH WIND       PRES   REMARKS
GOODLAND       CLOUDY    74  64  71 SW12      30.23F
HAYS           CLEAR     73  63  68 SE8       30.20S
HILL CITY      MOCLDY    76  65  68 S7        30.20R
RUSSELL        CLEAR     72  68  87 S9        30.18R
$$

KSZ061>065-074>080-084>089-310500-
...SOUTHWEST KANSAS...

CITY           SKY/WX    TMP DP  RH WIND       PRES   REMARKS
DODGE CITY     CLOUDY    73  68  84 S5        30.24R
ELKHART          N/A     73  68  84 E2          N/A
GARDEN CITY    CLOUDY    74  70  87 SE6       30.24R
GREAT BEND     CLEAR     73  66  78 SE8       30.20R
LIBERAL        CLOUDY    75  66  73 E8        30.24R
PRATT          CLEAR     73  68  83 E5        30.22R
$$

KSZ066>073-081>083-090>101-310500-
...SOUTHEAST KANSAS...

CITY           SKY/WX    TMP DP  RH WIND       PRES   REMARKS
CHANUTE        MOCLDY    73  66  78 CALM      30.16R
COFFEYVILLE    MOCLDY    77  73  87 N3        30.14R
HUTCHINSON     CLEAR     71  67  87 CALM      30.19R
MEDICINE LODGE   N/A     75  72  90 E3        30.18R
NEWTON         CLEAR     73  64  73 SE3       30.22R
PARSONS        MOCLDY    74  69  85 CALM      30.16R
WICHITA INTL   PTCLDY    76  68  76 SE3       30.18R
WICHITA JABRA  CLEAR     73  69  87 CALM      30.18R
WICHITA MCCONL CLEAR     76  64  66 E3        30.18R
WINFIELD       PTCLDY    74  67  78 CALM      30.17R
$$

KSZ007>012-019>026-033>040-048>060-102>105-310500-
...NORTHEAST KANSAS...

CITY           SKY/WX    TMP DP  RH WIND       PRES   REMARKS
CONCORDIA      CLEAR     73  68  84 S8        30.17R
EMPORIA        CLEAR     70  66  87 S6        30.17R
LAWRENCE       CLEAR     66  63  90 CALM      30.16R
MANHATTAN      CLEAR     70  65  84 CALM      30.17R
OLATHE IND     CLEAR     70  61  73 S3        30.17R
OLATHE EXE     CLEAR     71  61  70 CALM      30.16R
SALINA         CLEAR     76  67  73 SE5       30.17R
TOPEKA BILLARD CLEAR     70  69  97 CALM      30.16R
TOPEKA FORBES  CLEAR     70  64  81 CALM      30.16R
$$


USA.gov is the U.S. government's official web portal to all federal, state and local government web resources and services.